[[{"header":{"parameterUnit":"m.s-1","parameterCategory":1,"la1":30.2991,"la2":30.254,"lo1":-89.0895,"lo2":-89.0444,"dy":0.0017,"dx":0.0017,"nx":28,"ny":28,"refTime":"2024-08-07T03:00:00:Z","depth":0,"parameterNumber":2,"parameterNumberName":"U-component_of_WINDS"},"data":[0,0,0,0,0,0,0,0,0,0,0,0,0,0,0,0,0,0,0,0,0,0,0,0,0,0,0,0,0,0,0,0,0,0,0,0,0,0,0,0,0,0,0,0,0,0,0,0,0,0,0,0,0,0,0,0,0,0,2.8393,2.8395,0,2.8559,2.8561,2.8563,2.8577,2.8575,2.8573,2.8571,2.8743,2.8749,2.8755,0,0,0,0,0,0,0,0,0,0,0,0,0,2.809,2.8095,2.8393,2.8395,2.8397,2.8559,2.8561,2.8563,2.8577,2.8575,2.8573,2.8571,2.8741,2.8748,2.8756,0,0,0,0,0,0,0,0,0,0,0,0,0,2.8235,2.8097,2.8392,2.8423,2.8427,2.8558,2.8561,2.8564,2.8577,2.8575,2.8572,2.857,2.8739,2.8748,2.8757,2.8869,0,0,2.8786,2.879,0,0,0,0,0,0,0,0,2.8227,2.8246,2.8416,2.8421,2.8426,2.8544,2.8517,2.8666,2.8578,2.8521,2.8571,2.8568,2.8679,2.8693,2.873,2.8877,2.8884,2.8786,2.8792,2.8796,2.8799,0,0,0,0,0,0,0,2.8217,2.8239,2.8458,2.8419,2.8425,2.843,2.8447,2.8545,2.8613,2.8525,2.8527,2.8546,2.8681,2.8721,2.8735,2.8887,2.8786,2.8794,2.88,2.8804,2.9136,2.9139,0,0,0,0,0,0,2.82,2.8231,2.8453,2.8463,2.8318,2.8437,2.8457,2.8509,2.8612,2.8625,2.8548,2.8546,2.8707,2.8724,2.8741,2.888,2.8796,2.8805,2.881,2.9132,2.9136,2.914,0,0,0,0,0,0,2.8194,2.822,2.8446,2.8348,2.8377,2.8445,2.8504,2.8514,2.8554,2.8629,2.8642,2.8577,2.8705,2.8727,2.8837,2.8886,2.8809,2.8818,2.9129,2.9134,2.9138,2.9158,0,0,0,0,0,0,2.8185,2.8218,2.826,2.8348,2.8382,2.8539,2.8507,2.8519,2.857,2.8569,2.8659,2.8671,2.8705,2.8823,2.8847,2.8897,2.8825,2.9125,2.9131,2.9136,2.9153,2.9163,2.9171,0,0,0,0,0,2.8174,2.8259,2.8262,2.8289,2.8436,2.8542,2.8561,2.8598,2.8574,2.8617,2.8666,2.8669,2.8877,2.8834,2.8861,2.8915,2.9122,2.9129,2.9136,2.9149,2.9161,2.9171,0,0,0,0,0,0,2.8174,2.8271,2.8276,2.8391,2.8458,2.8544,2.86,2.8608,2.8684,2.868,2.8722,2.8743,2.8851,2.8894,2.8845,2.903,2.8997,2.901,2.8998,2.9009,2.9018,2.9006,2.8833,0,0,0,0,0,2.8188,2.8265,2.8346,2.844,2.8473,2.8531,2.8578,2.8601,2.8672,2.8701,2.8758,2.8827,2.8909,2.8962,2.904,2.916,2.918,2.921,2.9219,2.9226,2.9237,2.9305,2.9319,2.9163,2.9163,2.9163,0,0,2.8216,2.8279,2.8325,2.8441,2.8496,2.8576,2.8555,2.864,2.87,2.8714,2.8821,2.8866,2.8947,2.9062,2.9116,2.9101,2.9285,2.9235,2.924,2.9247,2.9314,2.9328,2.9341,2.9168,2.9167,2.9167,0,0,2.831,2.8364,2.8449,2.8505,2.8588,2.8626,2.8647,2.8732,2.8762,2.8871,2.8883,2.8956,2.9095,2.9152,2.92,2.9317,2.9323,2.9342,2.9388,2.9454,2.9466,2.9478,2.9521,2.9536,2.9352,2.9352,2.9352,0,2.8335,2.8455,2.8492,2.8578,2.8629,2.8646,2.8733,2.8786,2.889,2.8926,2.8908,2.9084,2.914,2.927,2.9299,2.9336,2.9362,2.9332,2.9462,2.9473,2.9484,2.9526,2.9542,2.9354,2.9354,2.9354,2.9354,0,2.8483,2.8566,2.8625,2.8726,2.8785,2.8871,2.8922,2.8977,2.8995,2.9035,2.9146,2.9214,2.9308,2.934,2.9358,2.9474,2.9462,2.9453,2.942,2.95,2.954,2.9556,2.9357,2.9356,2.9356,2.9355,0,0,2.8579,2.8701,2.8722,2.8769,2.8863,2.8929,2.9017,2.9108,2.9155,2.9228,2.9303,2.9421,2.9413,2.9467,2.9492,2.955,2.9641,2.9534,2.9537,2.9552,2.9774,2.9781,2.9799,2.9645,2.9648,2.9651,2.9768,0,2.8684,2.8839,2.8876,2.901,2.9089,2.9107,2.9183,2.925,2.9291,2.9364,2.941,2.9493,2.9476,2.9509,2.9567,2.9617,2.9686,2.9609,2.9717,2.972,2.9696,2.982,2.9827,2.9934,2.9783,2.9786,2.9788,0,2.8826,2.8902,2.9043,2.9129,2.9163,2.9231,2.932,2.9389,2.9466,2.9492,2.9553,2.9573,2.9666,2.9629,2.976,2.9707,2.9754,2.9785,2.979,2.9802,2.9759,2.9835,2.9968,2.9985,2.9813,2.9811,2.9809,0,2.8883,2.9021,2.9124,2.9164,2.9266,2.9313,2.9358,2.9432,2.9486,2.9563,2.9599,2.9686,2.9734,2.9802,2.9845,2.9814,2.9973,2.9939,2.9998,2.9997,3.003,3.0027,3.0173,3.0059,3.0059,3.0059,3.0058,0,2.8996,2.9082,2.9152,2.9215,2.9313,2.9355,2.9451,2.9497,2.9563,2.9637,2.9657,2.9726,2.9779,2.9856,2.989,2.9994,3.0015,3.004,3.0048,3.0038,3.0035,3.0069,3.0063,3.0063,3.0062,3.0061,3.006,0,2.9077,2.9126,2.924,2.9328,2.9352,2.942,2.9496,2.9559,2.9601,2.9694,2.9719,2.9785,2.9876,2.9926,3.0041,3.0064,3.0181,3.0185,3.0154,3.0158,3.0214,3.0209,3.0388,3.0414,3.0282,3.0283,3.0284,0,2.9145,2.9212,2.9308,2.9358,2.9404,2.9485,2.954,2.9585,2.9642,2.9736,2.9788,2.988,2.9957,3.0103,3.0162,3.025,3.0257,3.0314,3.027,3.0259,3.0259,3.0255,3.0262,3.0321,3.0322,3.0323,3.0324,0,2.9263,2.9284,2.9362,2.945,2.9515,2.9586,2.9656,2.9697,2.9753,2.9816,2.991,2.9969,3.0087,3.018,3.0273,3.0321,3.0333,3.0337,3.0356,3.0346,3.0327,3.0339,3.0176,3.0333,3.0332,3.0331,3.0331,3.033,2.934,2.9401,2.9478,2.9565,2.9623,2.9689,2.9753,2.9803,2.9882,2.9981,3.0003,3.0102,3.018,3.0307,3.0357,3.0436,3.0426,3.0452,3.0459,3.0465,3.0467,3.0314,3.0453,3.0453,3.0453,3.0453,3.0453,0,2.9459,2.951,2.9589,2.9688,2.9756,2.9761,2.984,2.9898,2.9985,3.0056,3.0131,3.024,3.033,3.0397,3.0489,3.054,3.0548,3.0563,3.056,3.0571,3.0471,3.0446,3.0555,3.0555,3.0555,3.0555,3.0555,3.0555,2.9529,2.9633,2.9664,2.9798,2.9849,2.9946,2.9991,3.0052,3.0109,3.023,3.0305,3.0347,3.0418,3.0516,3.0599,3.0617,3.065,3.0665,3.0683,3.0589,3.0578,3.0567,3.0544,3.0672,3.0672,3.0776,3.0777,3.0778]},{"header":{"parameterUnit":"m.s-1","parameterCategory":1,"la1":30.2991,"la2":30.254,"lo1":-89.0895,"lo2":-89.0444,"dy":0.0017,"dx":0.0017,"nx":28,"ny":28,"refTime":"2024-08-07T03:00:00:Z","depth":0,"parameterNumber":3,"parameterNumberName":"V-component_of_WINDS"},"data":[0,0,0,0,0,0,0,0,0,0,0,0,0,0,0,0,0,0,0,0,0,0,0,0,0,0,0,0,0,0,0,0,0,0,0,0,0,0,0,0,0,0,0,0,0,0,0,0,0,0,0,0,0,0,0,0,0,0,-1.9746,-1.9747,0,-1.9833,-1.9834,-1.9835,-1.9851,-1.9851,-1.985,-1.9849,-1.9937,-1.994,-1.9943,0,0,0,0,0,0,0,0,0,0,0,0,0,-1.9596,-1.9598,-1.9746,-1.9747,-1.9748,-1.9833,-1.9834,-1.9835,-1.9851,-1.9851,-1.985,-1.9849,-1.9936,-1.9939,-1.9943,0,0,0,0,0,0,0,0,0,0,0,0,0,-1.9669,-1.9599,-1.9746,-1.9767,-1.977,-1.9832,-1.9834,-1.9835,-1.9852,-1.9851,-1.985,-1.9849,-1.9935,-1.9939,-1.9943,-1.9992,0,0,-1.9957,-1.9959,0,0,0,0,0,0,0,0,-1.9665,-1.9675,-1.9763,-1.9765,-1.9769,-1.983,-1.9813,-1.9888,-1.9852,-1.982,-1.9849,-1.9848,-1.9902,-1.9909,-1.9928,-1.9996,-1.9999,-1.9957,-1.996,-1.9962,-1.9963,0,0,0,0,0,0,0,-1.966,-1.9671,-1.978,-1.9764,-1.9768,-1.9772,-1.9781,-1.9827,-1.9866,-1.9823,-1.9824,-1.9835,-1.9904,-1.9923,-1.993,-2.0001,-1.9957,-1.9961,-1.9964,-1.9966,-2.0114,-2.0115,0,0,0,0,0,0,-1.9651,-1.9667,-1.9778,-1.9783,-1.9713,-1.9775,-1.9786,-1.9811,-1.9866,-1.9873,-1.9835,-1.9835,-1.9916,-1.9925,-1.9933,-1.9993,-1.9962,-1.9966,-1.9969,-2.0112,-2.0114,-2.0115,0,0,0,0,0,0,-1.9648,-1.9661,-1.9774,-1.9725,-1.974,-1.9779,-1.9808,-1.9814,-1.9833,-1.9875,-1.9882,-1.9848,-1.9916,-1.9927,-1.9977,-1.9997,-1.9968,-1.9972,-2.0111,-2.0113,-2.0115,-2.0114,0,0,0,0,0,0,-1.9644,-1.966,-1.9678,-1.9726,-1.9743,-1.9817,-1.9809,-1.9816,-1.9841,-1.9842,-1.9889,-1.9896,-1.9916,-1.997,-1.9982,-2.0002,-1.9976,-2.0109,-2.0112,-2.0114,-2.0112,-2.0115,-2.0118,0,0,0,0,0,-1.9638,-1.9674,-1.9679,-1.9692,-1.9767,-1.9818,-1.9828,-1.985,-1.9843,-1.9862,-1.9889,-1.9894,-1.9993,-1.9975,-1.9988,-2.001,-2.0108,-2.0111,-2.0114,-2.0111,-2.0115,-2.0118,0,0,0,0,0,0,-1.9627,-1.9681,-1.9687,-1.9739,-1.9774,-1.9821,-1.9845,-1.9854,-1.9891,-1.989,-1.9916,-1.9927,-1.9976,-1.9998,-1.9978,-2.006,-2.005,-2.0056,-2.0044,-2.0048,-2.005,-2.0044,-1.9979,0,0,0,0,0,-1.9631,-1.9668,-1.9713,-1.9755,-1.9772,-1.9806,-1.9829,-1.9844,-1.988,-1.9895,-1.9925,-1.9961,-2.0,-2.0025,-2.0063,-2.0116,-2.0127,-2.0138,-2.0141,-2.0143,-2.0147,-2.0177,-2.0183,-2.0125,-2.0124,-2.0124,0,0,-1.9639,-1.9673,-1.9694,-1.9754,-1.9782,-1.982,-1.9818,-1.9858,-1.9887,-1.9901,-1.9951,-1.9974,-2.0016,-2.0068,-2.0092,-2.0088,-2.0166,-2.0147,-2.0148,-2.0151,-2.0181,-2.0186,-2.0191,-2.0126,-2.0126,-2.0126,0,0,-1.9672,-1.9702,-1.974,-1.977,-1.9813,-1.9836,-1.9845,-1.9891,-1.9908,-1.9958,-1.997,-2.0005,-2.0071,-2.0101,-2.0124,-2.0171,-2.0178,-2.0183,-2.0198,-2.0227,-2.0231,-2.0236,-2.0252,-2.0258,-2.0187,-2.0187,-2.0187,0,-1.9676,-1.9734,-1.9759,-1.9799,-1.9825,-1.9841,-1.988,-1.9907,-1.9961,-1.9979,-1.9974,-2.0059,-2.0088,-2.0147,-2.0159,-2.0177,-2.0189,-2.0177,-2.0229,-2.0233,-2.0238,-2.0254,-2.026,-2.0187,-2.0187,-2.0187,-2.0187,0,-1.9737,-1.9778,-1.9803,-1.9856,-1.9885,-1.9924,-1.9955,-1.9981,-1.9994,-2.0017,-2.0069,-2.0105,-2.0151,-2.0166,-2.0178,-2.0228,-2.0224,-2.0224,-2.0214,-2.0243,-2.0259,-2.0265,-2.0188,-2.0188,-2.0188,-2.0187,0,0,-1.9765,-1.9832,-1.9841,-1.9865,-1.9915,-1.9947,-1.9988,-2.0033,-2.0056,-2.0093,-2.0128,-2.0185,-2.0185,-2.0212,-2.0228,-2.0254,-2.0289,-2.0251,-2.0252,-2.0256,-2.0346,-2.0345,-2.0352,-2.0294,-2.0296,-2.0297,-2.0342,0,-1.9804,-1.9878,-1.9902,-1.9962,-2.0,-2.0017,-2.0052,-2.0087,-2.011,-2.0146,-2.0171,-2.0211,-2.0209,-2.0225,-2.0252,-2.0279,-2.0307,-2.0276,-2.0327,-2.0328,-2.0315,-2.036,-2.036,-2.0401,-2.0349,-2.035,-2.0351,0,-1.986,-1.9899,-1.9963,-2.001,-2.0027,-2.0058,-2.0103,-2.0136,-2.0177,-2.0192,-2.0223,-2.0237,-2.0281,-2.0269,-2.033,-2.0308,-2.0331,-2.0348,-2.035,-2.0355,-2.0341,-2.0366,-2.0415,-2.0421,-2.0361,-2.036,-2.0359,0,-1.9873,-1.9942,-1.999,-2.001,-2.0066,-2.0088,-2.0112,-2.0151,-2.0178,-2.0217,-2.0234,-2.0278,-2.0301,-2.0335,-2.0361,-2.035,-2.0419,-2.041,-2.0433,-2.0432,-2.0446,-2.0444,-2.0498,-2.0461,-2.0461,-2.0461,-2.0461,0,-1.9914,-1.9953,-1.9996,-2.0026,-2.007,-2.0098,-2.0141,-2.0166,-2.0202,-2.0236,-2.0254,-2.0286,-2.0319,-2.0355,-2.0376,-2.0423,-2.0434,-2.0447,-2.0452,-2.0446,-2.0444,-2.046,-2.0458,-2.0463,-2.0462,-2.0462,-2.0462,0,-1.9936,-1.9967,-2.002,-2.0069,-2.0082,-2.0113,-2.0155,-2.0184,-2.0209,-2.0252,-2.0264,-2.0303,-2.0347,-2.0377,-2.0433,-2.0447,-2.0499,-2.0503,-2.0485,-2.0487,-2.0509,-2.0506,-2.0574,-2.0584,-2.0541,-2.0541,-2.0542,0,-1.996,-1.9991,-2.0043,-2.0068,-2.0092,-2.0132,-2.0159,-2.0189,-2.0216,-2.0266,-2.0289,-2.0335,-2.0372,-2.0443,-2.0475,-2.0519,-2.0525,-2.0546,-2.0531,-2.0524,-2.0525,-2.0522,-2.0526,-2.0547,-2.0548,-2.0548,-2.0548,0,-1.9999,-2.0013,-2.0052,-2.0097,-2.0129,-2.0165,-2.0202,-2.0221,-2.0257,-2.0287,-2.0333,-2.0363,-2.0421,-2.0466,-2.0513,-2.0538,-2.0549,-2.0553,-2.056,-2.0553,-2.0541,-2.0548,-2.0491,-2.0551,-2.055,-2.055,-2.055,-2.055,-2.0023,-2.0051,-2.0093,-2.0136,-2.0166,-2.0201,-2.0231,-2.026,-2.0298,-2.0348,-2.0364,-2.0411,-2.0452,-2.0517,-2.0543,-2.0581,-2.0579,-2.059,-2.0593,-2.0595,-2.0595,-2.0536,-2.059,-2.059,-2.059,-2.059,-2.0589,0,-2.0062,-2.0091,-2.013,-2.0181,-2.0215,-2.0223,-2.0265,-2.0293,-2.0335,-2.0372,-2.0409,-2.0463,-2.0507,-2.0544,-2.059,-2.0613,-2.062,-2.0624,-2.0623,-2.0628,-2.0594,-2.0583,-2.0619,-2.0619,-2.0619,-2.0619,-2.0619,-2.0619,-2.0087,-2.0135,-2.0154,-2.0218,-2.0247,-2.0294,-2.0317,-2.0349,-2.0379,-2.0437,-2.0475,-2.0499,-2.0537,-2.0586,-2.0627,-2.0637,-2.0653,-2.0656,-2.0667,-2.0634,-2.0631,-2.0627,-2.0617,-2.066,-2.066,-2.0699,-2.0699,-2.0699]}]]